Location: Newark
(39.0622°N, 106.5590°E)
Time: 18:05:52
(UTC+00:00)

deb Explorer IX - All Passes

Search period start: 24 January 2020 00:00
Search period end: 03 February 2020 00:00
Orbit: 548 x 1101 km, 38.8° (Epoch: 23 January)

Date Brightness Start Highest point End Pass type
(mag) Time Alt. Az. Time Alt. Az. Time Alt. Az.
24 Jan - 13:02:10 10° S 13:07:05 21° SE 13:12:16 10° E visible
24 Jan - 14:46:50 10° SW 14:53:43 56° SSE 15:00:50 10° E night (unlit)
24 Jan - 16:33:50 10° W 16:41:10 87° S 16:48:20 10° E night (unlit)
24 Jan - 18:21:28 10° W 18:28:48 79° SSW 18:35:35 10° ESE night (unlit)
24 Jan - 20:09:21 10° W 20:15:52 40° SSW 20:21:44 10° SE visible
24 Jan - 22:00:21 10° WSW 22:01:55 11° SW 22:03:25 10° SSW visible
25 Jan - 12:39:48 10° S 12:44:39 21° SE 12:49:47 10° E visible
25 Jan - 14:24:27 10° SW 14:31:15 56° SSE 14:38:23 10° E visible
25 Jan - 16:11:24 10° W 16:18:42 87° S 16:25:57 10° E night (unlit)
25 Jan - 17:58:59 10° W 18:06:20 79° SSW 18:13:15 10° ESE night (unlit)
25 Jan - 19:46:50 10° W 19:53:26 40° SSW 19:59:26 10° SE night (unlit)
25 Jan - 21:37:44 10° WSW 21:39:31 11° SW 21:41:15 10° SSW visible
26 Jan - 12:17:28 10° S 12:22:13 21° SE 12:27:17 10° E visible
26 Jan - 14:02:06 10° SW 14:08:47 56° SSE 14:15:55 10° E visible
26 Jan - 15:49:00 10° W 15:56:13 87° S 16:03:32 10° E night (unlit)
26 Jan - 17:36:31 10° W 17:43:52 78° SSW 17:50:53 10° ESE night (unlit)
26 Jan - 19:24:20 10° W 19:30:59 40° SSW 19:37:07 10° SE night (unlit)
26 Jan - 21:15:09 10° WSW 21:17:07 11° SW 21:19:01 10° SSW visible
27 Jan - 11:55:09 10° S 11:59:46 21° SE 12:04:46 10° E visible
27 Jan - 13:39:45 10° SW 13:46:19 57° SSE 13:53:25 10° E visible
27 Jan - 15:26:36 10° W 15:33:44 87° S 15:41:05 10° E night (unlit)
27 Jan - 17:14:04 10° W 17:21:23 78° SSW 17:28:30 10° ESE night (unlit)
27 Jan - 19:01:50 10° W 19:08:31 40° SSW 19:14:46 10° SE night (unlit)
27 Jan - 20:52:35 10° WSW 20:54:41 11° SW 20:56:44 10° SSW night (unlit)
28 Jan - 11:32:50 10° S 11:37:21 21° SE 11:42:14 10° E visible
28 Jan - 13:17:24 10° SW 13:23:51 57° SSE 13:30:55 10° E visible
28 Jan - 15:04:12 10° W 15:11:14 87° S 15:18:37 10° E visible
28 Jan - 16:51:37 10° W 16:58:53 78° SSW 17:06:05 10° ESE night (unlit)
28 Jan - 18:39:20 10° W 18:46:02 40° SSW 18:52:23 10° SE night (unlit)
28 Jan - 20:30:03 10° WSW 20:32:15 12° SW 20:34:23 10° SSW night (unlit)
29 Jan - 11:10:33 10° S 11:14:55 21° SE 11:19:41 10° E visible
29 Jan - 12:55:05 10° SW 13:01:23 57° SSE 13:08:23 10° E visible
29 Jan - 14:41:50 10° W 14:48:45 88° S 14:56:07 10° E visible
29 Jan - 16:29:10 10° W 16:36:23 77° SSW 16:43:39 10° ESE night (unlit)
29 Jan - 18:16:51 10° W 18:23:33 39° SSW 18:29:59 10° SE night (unlit)
29 Jan - 20:07:32 10° WSW 20:09:47 12° SW 20:12:00 10° SSW night (unlit)
30 Jan - 10:48:16 10° S 10:52:29 20° SE 10:57:08 10° E visible
30 Jan - 12:32:46 10° SW 12:38:55 57° SSE 12:45:50 10° E visible
30 Jan - 14:19:28 10° W 14:26:16 88° S 14:33:36 10° E visible
30 Jan - 16:06:45 10° W 16:13:52 77° SSW 16:21:11 10° ESE night (unlit)
30 Jan - 17:54:22 10° W 18:01:02 39° SSW 18:07:33 10° SE night (unlit)
30 Jan - 19:45:02 10° WSW 19:47:19 12° SW 19:49:34 10° SSW night (unlit)
31 Jan - 10:26:00 10° S 10:30:04 20° SE 10:34:33 10° E daylight
31 Jan - 12:10:29 10° SW 12:16:27 57° SSE 12:23:17 10° E visible
31 Jan - 13:57:08 10° W 14:03:46 88° S 14:11:05 10° E visible
31 Jan - 15:44:19 10° W 15:51:21 76° SSW 15:58:41 10° ESE night (unlit)
31 Jan - 17:31:54 10° W 17:38:31 39° SSW 17:45:05 10° SE night (unlit)
31 Jan - 19:22:34 10° WSW 19:24:50 12° SW 19:27:05 10° SSW night (unlit)
01 Feb - 10:03:44 10° S 10:07:40 19° SE 10:11:59 10° E daylight
01 Feb - 11:48:11 10° SW 11:54:01 57° SSE 12:00:43 10° E visible
01 Feb - 13:34:47 10° W 13:41:17 88° S 13:48:31 10° E visible
01 Feb - 15:21:56 10° W 15:28:51 76° SSW 15:36:10 10° ESE visible
01 Feb - 17:09:27 10° W 17:16:00 38° SSW 17:22:36 10° SE night (unlit)
01 Feb - 19:00:09 10° WSW 19:02:21 11° SW 19:04:32 10° SSW night (unlit)
02 Feb - 09:41:29 10° S 09:45:16 19° SE 09:49:25 10° E daylight
02 Feb - 11:25:54 10° SW 11:31:34 57° SSE 11:38:08 10° E visible
02 Feb - 13:12:28 10° W 13:18:48 88° S 13:25:58 10° E visible
02 Feb - 14:59:32 10° W 15:06:20 75° SSW 15:13:38 10° ESE visible
02 Feb - 16:47:01 10° W 16:53:28 38° SSW 17:00:04 10° SE night (unlit)
02 Feb - 18:37:46 10° WSW 18:39:51 11° SW 18:41:56 10° SSW night (unlit)
